OEFVS LSZR-EBAW

Flight info

Callsign OEFVS
Flight time 1h 8m
Altitude 22000
Route ALAGO Z5 LOKTA/N0342F360 DCT BITBU DCT LIRSU L608 BATTY
Aircraft P180/L-SBDFGM3RWXY/LB1

Departure

Time 2026-04-29 17:00
Airport Sankt Gallen Altenrhein Airport (LSZR)

Arrival

Time 2026-04-29 18:08
Airport Antwerp International Airport (Deurne) (EBAW)
Time Latitude Longitude Altitude Speed Heading
2026-04-29 16:46 47.48726 9.55209 1308 ft 0 kts
2026-04-29 16:55 47.48744 9.55222 1308 ft 4 kts 58°
2026-04-29 16:55 47.48742 9.55280 1307 ft 8 kts 99°
2026-04-29 16:55 47.48723 9.55348 1307 ft 7 kts 162°
2026-04-29 16:56 47.48668 9.55339 1308 ft 8 kts 188°
2026-04-29 16:56 47.48610 9.55327 1311 ft 8 kts 189°
2026-04-29 16:56 47.48590 9.55251 1310 ft 12 kts 279°
2026-04-29 16:56 47.48605 9.55112 1308 ft 13 kts 278°
2026-04-29 16:57 47.48609 9.55005 1307 ft 9 kts 251°
2026-04-29 16:57 47.48622 9.54961 1307 ft 5 kts 64°
2026-04-29 16:57 47.48618 9.54992 1307 ft 0 kts 99°
2026-04-29 17:00 47.48608 9.55078 1307 ft 39 kts 99°
2026-04-29 17:00 47.48528 9.55844 1315 ft 105 kts 98°
2026-04-29 17:00 47.48378 9.57041 1589 ft 124 kts 95°
2026-04-29 17:00 47.48192 9.58363 1946 ft 137 kts 93°
2026-04-29 17:01 47.48014 9.59780 2498 ft 148 kts 92°
2026-04-29 17:01 47.47820 9.61353 3096 ft 162 kts 95°
2026-04-29 17:01 47.48088 9.62886 3770 ft 163 kts 48°
2026-04-29 17:01 47.49181 9.63372 4500 ft 182 kts 358°
2026-04-29 17:02 47.50395 9.62646 5207 ft 191 kts 339°
2026-04-29 17:02 47.51562 9.61664 5899 ft 195 kts 335°
2026-04-29 17:02 47.52721 9.60566 6537 ft 199 kts 333°
2026-04-29 17:02 47.53892 9.59458 7166 ft 200 kts 333°
2026-04-29 17:03 47.55076 9.58360 7763 ft 202 kts 335°
2026-04-29 17:03 47.56278 9.57264 8340 ft 204 kts 332°
2026-04-29 17:03 47.57483 9.56140 8940 ft 205 kts 332°
2026-04-29 17:03 47.58704 9.55017 9532 ft 207 kts 332°
2026-04-29 17:04 47.59964 9.53876 9842 ft 221 kts 337°
2026-04-29 17:04 47.61478 9.53435 10104 ft 224 kts
2026-04-29 17:04 47.63031 9.53587 10571 ft 224 kts
2026-04-29 17:04 47.64574 9.53625 10987 ft 225 kts
2026-04-29 17:05 47.66153 9.53675 11356 ft 228 kts
2026-04-29 17:05 47.67732 9.53745 11816 ft 227 kts
2026-04-29 17:05 47.69254 9.53132 12285 ft 227 kts 338°
2026-04-29 17:05 47.70690 9.52132 12691 ft 228 kts 337°
2026-04-29 17:06 47.72156 9.51195 13067 ft 229 kts 340°
2026-04-29 17:06 47.73609 9.50321 13747 ft 217 kts 339°
2026-04-29 17:06 47.74974 9.49457 14289 ft 213 kts 337°
2026-04-29 17:06 47.76337 9.48584 14735 ft 211 kts 338°
2026-04-29 17:07 47.77684 9.47731 15060 ft 214 kts 338°
2026-04-29 17:07 47.79036 9.46877 15542 ft 208 kts 338°
2026-04-29 17:07 47.80343 9.45910 15815 ft 215 kts 326°
2026-04-29 17:07 47.81499 9.44436 16111 ft 219 kts 319°
2026-04-29 17:08 47.82744 9.43223 16529 ft 215 kts 341°
2026-04-29 17:08 47.84224 9.42683 16733 ft 222 kts 347°
2026-04-29 17:08 47.85674 9.41947 17155 ft 219 kts 336°
2026-04-29 17:08 47.87030 9.40896 17455 ft 222 kts 332°
2026-04-29 17:09 47.88377 9.39798 17843 ft 220 kts 333°
2026-04-29 17:09 47.89751 9.38760 18153 ft 221 kts 334°
2026-04-29 17:09 47.91116 9.37744 18403 ft 224 kts 334°
2026-04-29 17:09 47.92505 9.36691 18695 ft 224 kts 334°
2026-04-29 17:10 47.93901 9.35628 18922 ft 227 kts 334°
2026-04-29 17:10 47.95313 9.34556 19196 ft 227 kts 334°
2026-04-29 17:10 47.96714 9.33494 19625 ft 226 kts 334°
2026-04-29 17:10 47.98125 9.32420 19957 ft 228 kts 334°
2026-04-29 17:11 47.99530 9.31351 20358 ft 227 kts 334°
2026-04-29 17:11 48.00946 9.30276 20664 ft 231 kts 334°
2026-04-29 17:11 48.02383 9.29185 21041 ft 231 kts 334°
2026-04-29 17:11 48.03841 9.28074 21386 ft 233 kts 333°
2026-04-29 17:12 48.05275 9.26980 21724 ft 236 kts 333°
2026-04-29 17:12 48.06737 9.25863 22154 ft 235 kts 335°
2026-04-29 17:12 48.08207 9.24742 22444 ft 239 kts 335°
2026-04-29 17:12 48.09192 9.23996 22703 ft 240 kts 335°
2026-04-29 17:13 48.11184 9.22476 23226 ft 242 kts 335°
2026-04-29 17:13 48.12690 9.21325 23682 ft 243 kts 335°
2026-04-29 17:13 48.14203 9.20165 24072 ft 245 kts 335°
2026-04-29 17:13 48.15728 9.18999 24449 ft 247 kts 335°
2026-04-29 17:14 48.17185 9.17621 24841 ft 250 kts 322°
2026-04-29 17:14 48.18466 9.15837 25236 ft 253 kts 319°
2026-04-29 17:14 48.19753 9.14025 25632 ft 254 kts 320°
2026-04-29 17:14 48.21064 9.12243 26067 ft 255 kts 320°
2026-04-29 17:15 48.22380 9.10452 26487 ft 257 kts 320°
2026-04-29 17:15 48.23699 9.08636 26921 ft 258 kts 320°
2026-04-29 17:15 48.25027 9.06805 27328 ft 261 kts 319°
2026-04-29 17:15 48.26369 9.04958 27758 ft 262 kts 319°
2026-04-29 17:16 48.27715 9.03104 28228 ft 263 kts 320°
2026-04-29 17:16 48.29073 9.01225 28662 ft 265 kts 320°
2026-04-29 17:16 48.30421 8.99372 29175 ft 267 kts 321°
2026-04-29 17:16 48.31801 8.97464 29668 ft 271 kts 322°
2026-04-29 17:17 48.33187 8.95553 30277 ft 270 kts 322°
2026-04-29 17:17 48.34567 8.93645 30845 ft 268 kts 321°
2026-04-29 17:17 48.35928 8.91759 31427 ft 265 kts 321°
2026-04-29 17:17 48.37277 8.89890 31991 ft 262 kts 320°
2026-04-29 17:18 48.38606 8.88049 32577 ft 258 kts 320°
2026-04-29 17:18 48.39920 8.86230 33099 ft 256 kts 319°
2026-04-29 17:18 48.41210 8.84437 33572 ft 255 kts 319°
2026-04-29 17:18 48.42507 8.82638 34052 ft 253 kts 318°
2026-04-29 17:19 48.43798 8.80841 34458 ft 252 kts 318°
2026-04-29 17:19 48.45086 8.79054 34895 ft 251 kts 318°
2026-04-29 17:19 48.46364 8.77274 35271 ft 250 kts 318°
2026-04-29 17:19 48.47641 8.75494 35609 ft 250 kts 318°
2026-04-29 17:20 48.48916 8.73717 35927 ft 249 kts 318°
2026-04-29 17:20 48.50191 8.71941 36173 ft 251 kts 318°
2026-04-29 17:20 48.51504 8.70110 36176 ft 263 kts 318°
2026-04-29 17:20 48.52872 8.68199 36181 ft 273 kts 318°
2026-04-29 17:21 48.54289 8.66217 36164 ft 283 kts 318°
2026-04-29 17:21 48.55754 8.64168 36177 ft 291 kts 318°
2026-04-29 17:21 48.57261 8.62059 36182 ft 300 kts 318°
2026-04-29 17:21 48.58807 8.59890 36187 ft 306 kts 318°
2026-04-29 17:22 48.61974 8.55446 36190 ft 315 kts 318°
2026-04-29 17:22 48.65233 8.50866 36189 ft 323 kts 318°
2026-04-29 17:23 48.68557 8.46183 36188 ft 330 kts 318°
2026-04-29 17:23 48.71923 8.41433 36189 ft 335 kts 318°
2026-04-29 17:24 48.75357 8.36577 36191 ft 340 kts 318°
2026-04-29 17:24 48.78828 8.31656 36191 ft 343 kts 319°
2026-04-29 17:25 48.82337 8.26680 36190 ft 347 kts 319°
2026-04-29 17:25 48.85872 8.21648 36190 ft 349 kts 319°
2026-04-29 17:26 48.89427 8.16582 36193 ft 353 kts 319°
2026-04-29 17:26 48.93077 8.11366 36196 ft 373 kts 319°
2026-04-29 17:27 48.96930 8.05856 36196 ft 383 kts 319°
2026-04-29 17:27 49.00819 8.00272 36198 ft 383 kts 319°
2026-04-29 17:28 49.04669 7.94734 36173 ft 377 kts 319°
2026-04-29 17:28 49.08466 7.89268 36196 ft 373 kts 319°
2026-04-29 17:29 49.12226 7.83836 36196 ft 371 kts 319°
2026-04-29 17:29 49.15334 7.79337 36197 ft 369 kts 319°
2026-04-29 17:30 49.19653 7.73074 36205 ft 368 kts 319°
2026-04-29 17:30 49.23358 7.67690 36204 ft 367 kts 319°
2026-04-29 17:31 49.27049 7.62311 36205 ft 366 kts 319°
2026-04-29 17:31 49.30736 7.56930 36183 ft 366 kts 320°
2026-04-29 17:32 49.34419 7.51541 36204 ft 366 kts 320°
2026-04-29 17:32 49.38100 7.46140 36210 ft 367 kts 320°
2026-04-29 17:33 49.41789 7.40723 36212 ft 367 kts 320°
2026-04-29 17:33 49.45475 7.35293 36212 ft 367 kts 320°
2026-04-29 17:34 49.49160 7.29853 36219 ft 367 kts 320°
2026-04-29 17:34 49.52842 7.24404 36221 ft 368 kts 320°
2026-04-29 17:35 49.58345 7.16247 36225 ft 368 kts 320°
2026-04-29 17:36 49.62031 7.10761 36225 ft 369 kts 320°
2026-04-29 17:36 49.65723 7.05256 36220 ft 369 kts 320°
2026-04-29 17:37 49.69421 6.99733 36214 ft 370 kts 320°
2026-04-29 17:37 49.73118 6.94195 36218 ft 371 kts 320°
2026-04-29 17:38 49.76819 6.88645 36219 ft 371 kts 320°
2026-04-29 17:38 49.80519 6.83073 36217 ft 371 kts 320°
2026-04-29 17:39 49.84221 6.77499 36218 ft 371 kts 320°
2026-04-29 17:39 49.87927 6.71893 36222 ft 372 kts 320°
2026-04-29 17:40 49.91635 6.66283 36194 ft 373 kts 320°
2026-04-29 17:40 49.95343 6.60653 36221 ft 373 kts 320°
2026-04-29 17:41 49.99475 6.55951 36209 ft 366 kts 335°
2026-04-29 17:41 50.04141 6.53074 36212 ft 362 kts 345°
2026-04-29 17:42 50.08918 6.50526 36212 ft 363 kts 345°
2026-04-29 17:42 50.13710 6.47975 35716 ft 368 kts 345°
2026-04-29 17:42 50.16140 6.46666 35233 ft 371 kts 344°
2026-04-29 17:43 50.18483 6.44927 34741 ft 375 kts 336°
2026-04-29 17:43 50.20696 6.42694 34224 ft 381 kts 329°
2026-04-29 17:43 50.22732 6.40084 33714 ft 383 kts 325°
2026-04-29 17:43 50.24769 6.37413 33202 ft 383 kts 326°
2026-04-29 17:44 50.26832 6.34771 32704 ft 382 kts 327°
2026-04-29 17:44 50.28893 6.32131 32200 ft 383 kts 326°
2026-04-29 17:44 50.30941 6.29457 31695 ft 384 kts 326°
2026-04-29 17:44 50.32299 6.27675 31359 ft 385 kts 326°
2026-04-29 17:45 50.34365 6.24987 30858 ft 386 kts 327°
2026-04-29 17:45 50.36435 6.22306 30348 ft 387 kts 327°
2026-04-29 17:45 50.38503 6.19614 29802 ft 386 kts 326°
2026-04-29 17:45 50.40564 6.16910 29291 ft 384 kts 326°
2026-04-29 17:46 50.42609 6.14230 28781 ft 382 kts 326°
2026-04-29 17:46 50.44649 6.11575 28292 ft 380 kts 326°
2026-04-29 17:46 50.46676 6.08923 27832 ft 377 kts 326°
2026-04-29 17:46 50.48678 6.06283 27355 ft 374 kts 326°
2026-04-29 17:47 50.50673 6.03662 26849 ft 372 kts 326°
2026-04-29 17:47 50.52632 6.01099 26377 ft 370 kts 326°
2026-04-29 17:47 50.54601 5.98512 25895 ft 368 kts 325°
2026-04-29 17:47 50.56564 5.95917 25405 ft 368 kts 325°
2026-04-29 17:48 50.58525 5.93323 24914 ft 368 kts 325°
2026-04-29 17:48 50.60316 5.90386 24347 ft 378 kts 310°
2026-04-29 17:48 50.61623 5.86773 23855 ft 381 kts 301°
2026-04-29 17:48 50.62797 5.83031 23320 ft 379 kts 301°
2026-04-29 17:49 50.64074 5.79443 22827 ft 373 kts 306°
2026-04-29 17:49 50.65448 5.76009 22331 ft 368 kts 306°
2026-04-29 17:49 50.66737 5.72524 21844 ft 369 kts 302°
2026-04-29 17:49 50.67923 5.68950 21361 ft 368 kts 301°
2026-04-29 17:50 50.69155 5.65413 20878 ft 367 kts 304°
2026-04-29 17:50 50.70465 5.61960 20397 ft 367 kts 305°
2026-04-29 17:50 50.71749 5.58478 19910 ft 366 kts 303°
2026-04-29 17:50 50.72956 5.54954 19431 ft 365 kts 301°
2026-04-29 17:51 50.74156 5.51499 18958 ft 362 kts 303°
2026-04-29 17:51 50.75417 5.48064 18459 ft 360 kts 304°
2026-04-29 17:51 50.76662 5.44651 17971 ft 357 kts 303°
2026-04-29 17:51 50.77855 5.41224 17499 ft 354 kts 302°
2026-04-29 17:52 50.79036 5.37829 17031 ft 351 kts 303°
2026-04-29 17:52 50.79851 5.35559 16719 ft 350 kts 303°
2026-04-29 17:52 50.81441 5.31154 16109 ft 347 kts 303°
2026-04-29 17:52 50.82606 5.27820 15647 ft 346 kts 302°
2026-04-29 17:53 50.83764 5.24499 15199 ft 344 kts 302°
2026-04-29 17:53 50.84938 5.21204 14742 ft 343 kts 303°
2026-04-29 17:53 50.86107 5.17925 14295 ft 342 kts 303°
2026-04-29 17:53 50.87272 5.14642 13818 ft 340 kts 304°
2026-04-29 17:54 50.88816 5.11919 13347 ft 330 kts 327°
2026-04-29 17:54 50.90713 5.09914 12933 ft 326 kts 330°
2026-04-29 17:54 50.92544 5.07784 12502 ft 327 kts 325°
2026-04-29 17:54 50.94285 5.05450 12078 ft 327 kts 323°
2026-04-29 17:55 50.96068 5.03205 11649 ft 327 kts 327°
2026-04-29 17:55 50.97927 5.01114 11221 ft 328 kts 328°
2026-04-29 17:55 50.99515 4.98531 11112 ft 328 kts 306°
2026-04-29 17:55 51.00276 4.95201 11180 ft 325 kts 283°
2026-04-29 17:56 51.00562 4.91624 11189 ft 321 kts 277°
2026-04-29 17:56 51.00878 4.88188 11188 ft 316 kts 284°
2026-04-29 17:56 51.01551 4.84890 11176 ft 312 kts 295°
2026-04-29 17:56 51.02422 4.81746 11150 ft 311 kts 297°
2026-04-29 17:57 51.03298 4.78527 10672 ft 324 kts 294°
2026-04-29 17:57 51.04031 4.75084 10228 ft 332 kts 289°
2026-04-29 17:57 51.04703 4.71554 9749 ft 335 kts 289°
2026-04-29 17:57 51.05487 4.68079 9305 ft 332 kts 293°
2026-04-29 17:58 51.06339 4.64671 8870 ft 331 kts 293°
2026-04-29 17:58 51.07115 4.61225 8434 ft 330 kts 290°
2026-04-29 17:58 51.07818 4.57758 8003 ft 328 kts 289°
2026-04-29 17:58 51.08536 4.54435 7573 ft 311 kts 291°
2026-04-29 17:59 51.09279 4.51297 7187 ft 297 kts 292°
2026-04-29 17:59 51.09988 4.48212 6797 ft 296 kts 290°
2026-04-29 17:59 51.10640 4.45114 6394 ft 294 kts 289°
2026-04-29 17:59 51.11295 4.42039 6001 ft 292 kts 289°
2026-04-29 18:00 51.11981 4.39010 5613 ft 290 kts 290°
2026-04-29 18:00 51.12667 4.36001 5234 ft 289 kts 289°
2026-04-29 18:00 51.13317 4.32977 4852 ft 287 kts 288°
2026-04-29 18:00 51.13949 4.29960 4464 ft 286 kts 289°
2026-04-29 18:01 51.14612 4.26975 4087 ft 285 kts 291°
2026-04-29 18:01 51.15281 4.24009 3708 ft 285 kts 291°
2026-04-29 18:01 51.15944 4.20984 3322 ft 293 kts 291°
2026-04-29 18:01 51.16617 4.17902 2998 ft 292 kts 294°
2026-04-29 18:02 51.17449 4.15029 2982 ft 278 kts 303°
2026-04-29 18:02 51.18712 4.12942 2972 ft 247 kts 336°
2026-04-29 18:02 51.20257 4.12505 2978 ft 214 kts 17°
2026-04-29 18:02 51.21422 4.13636 2978 ft 189 kts 57°
2026-04-29 18:03 51.21939 4.15477 2987 ft 179 kts 71°
2026-04-29 18:03 51.22179 4.17357 2985 ft 173 kts 88°
2026-04-29 18:03 51.22193 4.19267 2990 ft 172 kts 86°
2026-04-29 18:03 51.22444 4.21164 2984 ft 174 kts 73°
2026-04-29 18:04 51.22857 4.22891 2990 ft 158 kts 70°
2026-04-29 18:04 51.23239 4.24472 2992 ft 148 kts 71°
2026-04-29 18:04 51.23436 4.26034 2978 ft 145 kts 89°
2026-04-29 18:04 51.23239 4.27618 2784 ft 147 kts 106°
2026-04-29 18:05 51.22868 4.29115 2550 ft 147 kts 106°
2026-04-29 18:05 51.22523 4.30653 2323 ft 147 kts 104°
2026-04-29 18:05 51.22193 4.32122 2097 ft 130 kts 105°
2026-04-29 18:05 51.21901 4.33417 1901 ft 122 kts 104°
2026-04-29 18:06 51.21622 4.34680 1711 ft 119 kts 104°
2026-04-29 18:06 51.21341 4.35927 1509 ft 120 kts 104°
2026-04-29 18:06 51.21064 4.37177 1328 ft 119 kts 104°
2026-04-29 18:06 51.20781 4.38418 1138 ft 118 kts 105°
2026-04-29 18:07 51.20507 4.39642 934 ft 116 kts 105°
2026-04-29 18:07 51.20241 4.40793 813 ft 109 kts 107°
2026-04-29 18:07 51.19953 4.41954 630 ft 115 kts 103°
2026-04-29 18:07 51.19723 4.43117 480 ft 105 kts 101°
2026-04-29 18:08 51.19473 4.44223 286 ft 108 kts 111°
2026-04-29 18:08 51.19223 4.45319 144 ft 109 kts 109°
2026-04-29 18:08 51.18997 4.46313 39 ft 78 kts 110°
2026-04-29 18:08 51.18872 4.46876 36 ft 33 kts 110°
2026-04-29 18:09 51.18819 4.47097 36 ft 16 kts 123°
2026-04-29 18:09 51.18723 4.47113 33 ft 12 kts 166°
2026-04-29 18:09 51.18654 4.47035 33 ft 15 kts 233°
2026-04-29 18:09 51.18599 4.46893 33 ft 15 kts 246°
2026-04-29 18:10 51.18575 4.46732 33 ft 16 kts 269°
2026-04-29 18:10 51.18592 4.46557 33 ft 14 kts 284°
2026-04-29 18:10 51.18613 4.46421 33 ft 12 kts 284°
2026-04-29 18:10 51.18631 4.46304 33 ft 9 kts 283°
2026-04-29 18:11 51.18645 4.46211 33 ft 9 kts 284°
2026-04-29 18:11 51.18665 4.46093 33 ft 14 kts 285°
2026-04-29 18:11 51.18697 4.45894 33 ft 21 kts 284°
2026-04-29 18:11 51.18731 4.45677 33 ft 20 kts 284°
2026-04-29 18:12 51.18762 4.45500 33 ft 12 kts 299°
2026-04-29 18:12 51.18785 4.45424 33 ft 4 kts 331°
2026-04-29 18:12 51.18787 4.45422 33 ft 0 kts 330°